Simultaneous Nadir Overpasses (SNOs) Predictions

Prediction of SNOs between GOES-16 and AQUA Satellite Orbit:

Table of predicted SNOs for the next 14.0 days since TLE Epoch: 11/13/2021
Index Date Time (GOES-16) GOES-16 Lat,Lon AQUA Lat,Lon Distance(km) Time Diff (sec)
1 11/13/2021 06:50:45 0.02, -75.19 0.66, -78.32 354.95 80
2 11/15/2021 06:38:34 0.02, -75.20 0.05, -75.36 17.31 80
3 11/17/2021 06:23:43 0.02, -75.22 -0.57, -72.40 321.12 80
4 11/17/2021 18:45:08 -0.02, -75.23 -0.50, -77.60 268.38 80
5 11/19/2021 18:35:37 -0.02, -75.25 0.13, -74.64 70.57 80
6 11/21/2021 18:23:26 -0.02, -75.28 0.76, -71.68 409.65 80
7 11/22/2021 06:44:40 0.03, -75.28 0.37, -76.83 175.83 80
8 11/24/2021 06:29:49 0.02, -75.31 -0.27, -73.87 163.73 80
9 11/24/2021 18:53:53 -0.03, -75.32 -0.85, -79.06 425.62 80
10 11/26/2021 18:41:42 -0.02, -75.36 -0.20, -76.10 85.32 80
